owner,sensor,date,latitude,longitude,vertical_datum,mass_concentration_of_oxygen_in_sea_water,qcFlag 
SCCF RECON,ioos:station:SCCF:16:1,2010-02-01T00:00:00Z,26.4345,-81.9647,2.003,7.03,1111122 
SCCF RECON,ioos:station:SCCF:16:1,2010-02-01T01:00:00Z,26.4345,-81.9647,2.067,6.96,1111122 
SCCF RECON,ioos:station:SCCF:16:1,2010-02-01T02:00:00Z,26.4345,-81.9647,2.283,6.99,1111122 
SCCF RECON,ioos:station:SCCF:16:1,2010-02-01T03:00:00Z,26.4345,-81.9647,2.551,7.08,1111122 
SCCF RECON,ioos:station:SCCF:16:1,2010-02-01T04:00:00Z,26.4345,-81.9647,2.679,7.22,1111122 
SCCF RECON,ioos:station:SCCF:16:1,2010-02-01T05:00:00Z,26.4345,-81.9647,2.786,7.26,1111122 
SCCF RECON,ioos:station:SCCF:16:1,2010-02-01T06:00:00Z,26.4345,-81.9647,2.835,7.33,1111122 
SCCF RECON,ioos:station:SCCF:16:1,2010-02-01T07:00:00Z,26.4345,-81.9647,2.783,7.28,1111122 
SCCF RECON,ioos:station:SCCF:16:1,2010-02-01T08:00:00Z,26.4345,-81.9647,2.64,7.19,1111122 
SCCF RECON,ioos:station:SCCF:16:1,2010-02-01T09:00:00Z,26.4345,-81.9647,2.443,7.16,1111122 
SCCF RECON,ioos:station:SCCF:16:1,2010-02-01T10:00:00Z,26.4345,-81.9647,2.215,7.08,1111122 
SCCF RECON,ioos:station:SCCF:16:1,2010-02-01T11:00:00Z,26.4345,-81.9647,2.058,6.94,1111122 
SCCF RECON,ioos:station:SCCF:16:1,2010-02-01T12:00:00Z,26.4345,-81.9647,1.898,6.88,1111122 
SCCF RECON,ioos:station:SCCF:16:1,2010-02-01T13:00:00Z,26.4345,-81.9647,1.837,6.97,1111122 
SCCF RECON,ioos:station:SCCF:16:1,2010-02-01T14:00:00Z,26.4345,-81.9647,1.966,6.89,1111122 
SCCF RECON,ioos:station:SCCF:16:1,2010-02-01T15:00:00Z,26.4345,-81.9647,2.265,6.95,1111122 
SCCF RECON,ioos:station:SCCF:16:1,2010-02-01T16:00:00Z,26.4345,-81.9647,2.507,7.0,1111122 
SCCF RECON,ioos:station:SCCF:16:1,2010-02-01T17:00:00Z,26.4345,-81.9647,2.639,7.17,1111122 
SCCF RECON,ioos:station:SCCF:16:1,2010-02-01T18:00:00Z,26.4345,-81.9647,2.679,7.28,1111122 
SCCF RECON,ioos:station:SCCF:16:1,2010-02-01T19:00:00Z,26.4345,-81.9647,2.681,7.24,1111122 
SCCF RECON,ioos:station:SCCF:16:1,2010-02-01T20:00:00Z,26.4345,-81.9647,2.673,7.27,1111122 
SCCF RECON,ioos:station:SCCF:16:1,2010-02-01T21:00:00Z,26.4345,-81.9647,2.561,7.22,1111122 
SCCF RECON,ioos:station:SCCF:16:1,2010-02-01T22:00:00Z,26.4345,-81.9647,2.394,7.07,1111122 
SCCF RECON,ioos:station:SCCF:16:1,2010-02-01T23:00:00Z,26.4345,-81.9647,2.254,7.07,1111122 
SCCF RECON,ioos:station:SCCF:16:1,2010-02-02T00:00:00Z,26.4345,-81.9647,2.151,7.03,1111122 
SCCF RECON,ioos:station:SCCF:16:1,2010-02-02T01:00:00Z,26.4345,-81.9647,2.118,6.98,1111122 
SCCF RECON,ioos:station:SCCF:16:1,2010-02-02T02:00:00Z,26.4345,-81.9647,2.183,6.99,1111122 
SCCF RECON,ioos:station:SCCF:16:1,2010-02-02T03:00:00Z,26.4345,-81.9647,2.404,7.04,1111122 
SCCF RECON,ioos:station:SCCF:16:1,2010-02-02T04:00:00Z,26.4345,-81.9647,2.646,7.12,1111122 
SCCF RECON,ioos:station:SCCF:16:1,2010-02-02T05:00:00Z,26.4345,-81.9647,2.747,7.12,1111122 
SCCF RECON,ioos:station:SCCF:16:1,2010-02-02T06:00:00Z,26.4345,-81.9647,2.787,7.1,1111122 
SCCF RECON,ioos:station:SCCF:16:1,2010-02-02T07:00:00Z,26.4345,-81.9647,2.79,7.08,1111122 
SCCF RECON,ioos:station:SCCF:16:1,2010-02-02T08:00:00Z,26.4345,-81.9647,2.717,7.06,1111122 
SCCF RECON,ioos:station:SCCF:16:1,2010-02-02T09:00:00Z,26.4345,-81.9647,2.588,6.9,1111122 
SCCF RECON,ioos:station:SCCF:16:1,2010-02-02T10:00:00Z,26.4345,-81.9647,2.444,6.94,1111122 
SCCF RECON,ioos:station:SCCF:16:1,2010-02-02T11:00:00Z,26.4345,-81.9647,2.283,6.87,1111122 
SCCF RECON,ioos:station:SCCF:16:1,2010-02-02T12:00:00Z,26.4345,-81.9647,2.147,6.81,1111122 
SCCF RECON,ioos:station:SCCF:16:1,2010-02-02T13:00:00Z,26.4345,-81.9647,2.044,6.8,1111122 
SCCF RECON,ioos:station:SCCF:16:1,2010-02-02T14:00:00Z,26.4345,-81.9647,2.025,6.76,1111122 
SCCF RECON,ioos:station:SCCF:16:1,2010-02-02T15:00:00Z,26.4345,-81.9647,2.204,6.81,1111122 
SCCF RECON,ioos:station:SCCF:16:1,2010-02-02T16:00:00Z,26.4345,-81.9647,2.537,7.06,1111122 
SCCF RECON,ioos:station:SCCF:16:1,2010-02-02T17:00:00Z,26.4345,-81.9647,2.712,7.1,1111122 
SCCF RECON,ioos:station:SCCF:16:1,2010-02-02T18:00:00Z,26.4345,-81.9647,2.762,7.08,1111122 
SCCF RECON,ioos:station:SCCF:16:1,2010-02-02T19:00:00Z,26.4345,-81.9647,2.767,7.06,1111122 
SCCF RECON,ioos:station:SCCF:16:1,2010-02-02T20:00:00Z,26.4345,-81.9647,2.788,7.17,1111122 
SCCF RECON,ioos:station:SCCF:16:1,2010-02-02T21:00:00Z,26.4345,-81.9647,2.7,7.05,1111122 
SCCF RECON,ioos:station:SCCF:16:1,2010-02-02T22:00:00Z,26.4345,-81.9647,2.58,6.81,1111122 
SCCF RECON,ioos:station:SCCF:16:1,2010-02-02T23:00:00Z,26.4345,-81.9647,2.475,6.89,1111122 
SCCF RECON,ioos:station:SCCF:16:1,2010-02-03T00:00:00Z,26.4345,-81.9647,2.22,6.85,1111122 
SCCF RECON,ioos:station:SCCF:16:1,2010-02-03T01:00:00Z,26.4345,-81.9647,2.003,6.84,1111122 
SCCF RECON,ioos:station:SCCF:16:1,2010-02-03T02:00:00Z,26.4345,-81.9647,1.992,6.86,1111122 
SCCF RECON,ioos:station:SCCF:16:1,2010-02-03T03:00:00Z,26.4345,-81.9647,2.129,6.94,1111122 
SCCF RECON,ioos:station:SCCF:16:1,2010-02-03T04:00:00Z,26.4345,-81.9647,2.358,7.08,1111122 
SCCF RECON,ioos:station:SCCF:16:1,2010-02-03T05:00:00Z,26.4345,-81.9647,2.496,7.15,1111122 
SCCF RECON,ioos:station:SCCF:16:1,2010-02-03T06:00:00Z,26.4345,-81.9647,2.583,7.12,1111122 
SCCF RECON,ioos:station:SCCF:16:1,2010-02-03T07:00:00Z,26.4345,-81.9647,2.591,7.06,1111122 
SCCF RECON,ioos:station:SCCF:16:1,2010-02-03T08:00:00Z,26.4345,-81.9647,2.593,7.11,1111122 
SCCF RECON,ioos:station:SCCF:16:1,2010-02-03T09:00:00Z,26.4345,-81.9647,2.562,7.12,1111122 
SCCF RECON,ioos:station:SCCF:16:1,2010-02-03T10:00:00Z,26.4345,-81.9647,2.478,6.92,1111122 
SCCF RECON,ioos:station:SCCF:16:1,2010-02-03T11:00:00Z,26.4345,-81.9647,2.29,6.92,1111122 
SCCF RECON,ioos:station:SCCF:16:1,2010-02-03T12:00:00Z,26.4345,-81.9647,2.147,6.85,1111122 
SCCF RECON,ioos:station:SCCF:16:1,2010-02-03T13:00:00Z,26.4345,-81.9647,2.055,6.85,1111122 
SCCF RECON,ioos:station:SCCF:16:1,2010-02-03T14:00:00Z,26.4345,-81.9647,2.0,6.89,1111122 
SCCF RECON,ioos:station:SCCF:16:1,2010-02-03T15:00:00Z,26.4345,-81.9647,2.066,6.89,1111122 
SCCF RECON,ioos:station:SCCF:16:1,2010-02-03T16:00:00Z,26.4345,-81.9647,2.309,6.99,1111122 
SCCF RECON,ioos:station:SCCF:16:1,2010-02-03T17:00:00Z,26.4345,-81.9647,2.482,7.03,1111122 
SCCF RECON,ioos:station:SCCF:16:1,2010-02-03T18:00:00Z,26.4345,-81.9647,2.671,7.18,1111122 
SCCF RECON,ioos:station:SCCF:16:1,2010-02-03T19:00:00Z,26.4345,-81.9647,2.691,7.43,1111122 
SCCF RECON,ioos:station:SCCF:16:1,2010-02-03T20:00:00Z,26.4345,-81.9647,2.647,7.41,1111122 
SCCF RECON,ioos:station:SCCF:16:1,2010-02-03T21:00:00Z,26.4345,-81.9647,2.702,7.42,1111122 
SCCF RECON,ioos:station:SCCF:16:1,2010-02-03T22:00:00Z,26.4345,-81.9647,2.615,7.41,1111122 
SCCF RECON,ioos:station:SCCF:16:1,2010-02-03T23:00:00Z,26.4345,-81.9647,2.432,7.23,1111122 
SCCF RECON,ioos:station:SCCF:16:1,2010-02-04T00:00:00Z,26.4345,-81.9647,2.303,7.19,1111122 
SCCF RECON,ioos:station:SCCF:16:1,2010-02-04T01:00:00Z,26.4345,-81.9647,2.153,7.14,1111122 
SCCF RECON,ioos:station:SCCF:16:1,2010-02-04T02:00:00Z,26.4345,-81.9647,1.956,7.05,1111122 
SCCF RECON,ioos:station:SCCF:16:1,2010-02-04T03:00:00Z,26.4345,-81.9647,1.938,7.06,1111122 
SCCF RECON,ioos:station:SCCF:16:1,2010-02-04T04:00:00Z,26.4345,-81.9647,2.107,7.1,1111122 
SCCF RECON,ioos:station:SCCF:16:1,2010-02-04T05:00:00Z,26.4345,-81.9647,2.247,7.18,1111122 
SCCF RECON,ioos:station:SCCF:16:1,2010-02-04T06:00:00Z,26.4345,-81.9647,2.351,7.25,1111122 
SCCF RECON,ioos:station:SCCF:16:1,2010-02-04T07:00:00Z,26.4345,-81.9647,2.439,7.25,1111122 
SCCF RECON,ioos:station:SCCF:16:1,2010-02-04T08:00:00Z,26.4345,-81.9647,2.448,7.19,1111122 
SCCF RECON,ioos:station:SCCF:16:1,2010-02-04T09:00:00Z,26.4345,-81.9647,2.425,7.14,1111122 
SCCF RECON,ioos:station:SCCF:16:1,2010-02-04T10:00:00Z,26.4345,-81.9647,2.421,7.17,1111122 
SCCF RECON,ioos:station:SCCF:16:1,2010-02-04T11:00:00Z,26.4345,-81.9647,2.382,7.14,1111122 
SCCF RECON,ioos:station:SCCF:16:1,2010-02-04T12:00:00Z,26.4345,-81.9647,2.305,6.93,1111122 
SCCF RECON,ioos:station:SCCF:16:1,2010-02-04T13:00:00Z,26.4345,-81.9647,2.294,6.96,1111122 
SCCF RECON,ioos:station:SCCF:16:1,2010-02-04T14:00:00Z,26.4345,-81.9647,2.248,7.04,1111122 
SCCF RECON,ioos:station:SCCF:16:1,2010-02-04T15:00:00Z,26.4345,-81.9647,2.187,7.07,1111122 
SCCF RECON,ioos:station:SCCF:16:1,2010-02-04T16:00:00Z,26.4345,-81.9647,2.28,7.02,1111122 
SCCF RECON,ioos:station:SCCF:16:1,2010-02-04T17:00:00Z,26.4345,-81.9647,2.465,7.23,1111122 
SCCF RECON,ioos:station:SCCF:16:1,2010-02-04T18:00:00Z,26.4345,-81.9647,2.584,7.41,1111122 
SCCF RECON,ioos:station:SCCF:16:1,2010-02-04T19:00:00Z,26.4345,-81.9647,2.68,7.54,1111122 
SCCF RECON,ioos:station:SCCF:16:1,2010-02-04T20:00:00Z,26.4345,-81.9647,2.688,7.61,1111122 
SCCF RECON,ioos:station:SCCF:16:1,2010-02-04T21:00:00Z,26.4345,-81.9647,2.707,7.65,1111122 
SCCF RECON,ioos:station:SCCF:16:1,2010-02-04T22:00:00Z,26.4345,-81.9647,2.75,7.7,1111122 
SCCF RECON,ioos:station:SCCF:16:1,2010-02-04T23:00:00Z,26.4345,-81.9647,2.639,7.59,1111122 
SCCF RECON,ioos:station:SCCF:16:1,2010-02-05T00:00:00Z,26.4345,-81.9647,2.471,7.52,1111122 
SCCF RECON,ioos:station:SCCF:16:1,2010-02-05T01:00:00Z,26.4345,-81.9647,2.303,7.51,1111122 
SCCF RECON,ioos:station:SCCF:16:1,2010-02-05T02:00:00Z,26.4345,-81.9647,2.152,7.43,1111122 
SCCF RECON,ioos:station:SCCF:16:1,2010-02-05T03:00:00Z,26.4345,-81.9647,2.062,7.35,1111122 
SCCF RECON,ioos:station:SCCF:16:1,2010-02-05T04:00:00Z,26.4345,-81.9647,2.009,7.27,1111122 
SCCF RECON,ioos:station:SCCF:16:1,2010-02-05T05:00:00Z,26.4345,-81.9647,2.126,7.17,1111122 
SCCF RECON,ioos:station:SCCF:16:1,2010-02-05T06:00:00Z,26.4345,-81.9647,2.297,7.19,1111122 
SCCF RECON,ioos:station:SCCF:16:1,2010-02-05T07:00:00Z,26.4345,-81.9647,2.39,7.21,1111122 
SCCF RECON,ioos:station:SCCF:16:1,2010-02-05T08:00:00Z,26.4345,-81.9647,2.454,7.26,1111122 
SCCF RECON,ioos:station:SCCF:16:1,2010-02-05T09:00:00Z,26.4345,-81.9647,2.511,7.29,1111122 
SCCF RECON,ioos:station:SCCF:16:1,2010-02-05T10:00:00Z,26.4345,-81.9647,2.528,7.28,1111122 
SCCF RECON,ioos:station:SCCF:16:1,2010-02-05T11:00:00Z,26.4345,-81.9647,2.517,7.3,1111122 
SCCF RECON,ioos:station:SCCF:16:1,2010-02-05T12:00:00Z,26.4345,-81.9647,2.547,7.25,1111122 
SCCF RECON,ioos:station:SCCF:16:1,2010-02-05T13:00:00Z,26.4345,-81.9647,2.543,7.31,1111122 
SCCF RECON,ioos:station:SCCF:16:1,2010-02-05T14:00:00Z,26.4345,-81.9647,2.529,7.38,1111122 
SCCF RECON,ioos:station:SCCF:16:1,2010-02-05T15:00:00Z,26.4345,-81.9647,2.513,7.36,1111122 
SCCF RECON,ioos:station:SCCF:16:1,2010-02-05T16:00:00Z,26.4345,-81.9647,2.523,7.38,1111122 
SCCF RECON,ioos:station:SCCF:16:1,2010-02-05T17:00:00Z,26.4345,-81.9647,2.515,7.39,1111122 
SCCF RECON,ioos:station:SCCF:16:1,2010-02-05T18:00:00Z,26.4345,-81.9647,2.563,7.48,1111122 
SCCF RECON,ioos:station:SCCF:16:1,2010-02-05T19:00:00Z,26.4345,-81.9647,2.692,7.57,1111122 
SCCF RECON,ioos:station:SCCF:16:1,2010-02-05T20:00:00Z,26.4345,-81.9647,1.0,-9999.0,1111122 
SCCF RECON,ioos:station:SCCF:16:1,2010-02-05T21:00:00Z,26.4345,-81.9647,2.892,7.57,1111122 
SCCF RECON,ioos:station:SCCF:16:1,2010-02-05T22:00:00Z,26.4345,-81.9647,2.958,7.52,1111122 
SCCF RECON,ioos:station:SCCF:16:1,2010-02-05T23:00:00Z,26.4345,-81.9647,2.65,7.42,1111122 
SCCF RECON,ioos:station:SCCF:16:1,2010-02-06T00:00:00Z,26.4345,-81.9647,2.61,7.41,1111122 
SCCF RECON,ioos:station:SCCF:16:1,2010-02-06T01:00:00Z,26.4345,-81.9647,2.484,7.41,1111122 
SCCF RECON,ioos:station:SCCF:16:1,2010-02-06T02:00:00Z,26.4345,-81.9647,2.351,7.34,1111122 
SCCF RECON,ioos:station:SCCF:16:1,2010-02-06T03:00:00Z,26.4345,-81.9647,2.205,7.3,1111122 
SCCF RECON,ioos:station:SCCF:16:1,2010-02-06T04:00:00Z,26.4345,-81.9647,2.177,7.23,1111122 
SCCF RECON,ioos:station:SCCF:16:1,2010-02-06T05:00:00Z,26.4345,-81.9647,2.088,7.18,1111122 
SCCF RECON,ioos:station:SCCF:16:1,2010-02-06T06:00:00Z,26.4345,-81.9647,2.023,7.1,1111122 
SCCF RECON,ioos:station:SCCF:16:1,2010-02-06T07:00:00Z,26.4345,-81.9647,2.085,7.06,1111122 
SCCF RECON,ioos:station:SCCF:16:1,2010-02-06T08:00:00Z,26.4345,-81.9647,2.159,7.01,1111122 
SCCF RECON,ioos:station:SCCF:16:1,2010-02-06T09:00:00Z,26.4345,-81.9647,2.263,7.06,1111122 
SCCF RECON,ioos:station:SCCF:16:1,2010-02-06T10:00:00Z,26.4345,-81.9647,2.372,7.09,1111122 
SCCF RECON,ioos:station:SCCF:16:1,2010-02-06T11:00:00Z,26.4345,-81.9647,2.433,7.2,1111122 
SCCF RECON,ioos:station:SCCF:16:1,2010-02-06T12:00:00Z,26.4345,-81.9647,2.441,7.16,1111122 
SCCF RECON,ioos:station:SCCF:16:1,2010-02-06T13:00:00Z,26.4345,-81.9647,2.403,7.15,1111122 
SCCF RECON,ioos:station:SCCF:16:1,2010-02-06T14:00:00Z,26.4345,-81.9647,2.444,7.19,1111122 
SCCF RECON,ioos:station:SCCF:16:1,2010-02-06T15:00:00Z,26.4345,-81.9647,2.426,7.23,1111122 
SCCF RECON,ioos:station:SCCF:16:1,2010-02-06T16:00:00Z,26.4345,-81.9647,2.439,7.2,1111122 
SCCF RECON,ioos:station:SCCF:16:1,2010-02-06T17:00:00Z,26.4345,-81.9647,2.446,7.12,1111122 
SCCF RECON,ioos:station:SCCF:16:1,2010-02-06T18:00:00Z,26.4345,-81.9647,2.449,7.27,1111122 
SCCF RECON,ioos:station:SCCF:16:1,2010-02-06T19:00:00Z,26.4345,-81.9647,2.486,7.37,1111122 
SCCF RECON,ioos:station:SCCF:16:1,2010-02-06T20:00:00Z,26.4345,-81.9647,2.549,7.39,1111122 
SCCF RECON,ioos:station:SCCF:16:1,2010-02-06T21:00:00Z,26.4345,-81.9647,2.61,7.41,1111122 
SCCF RECON,ioos:station:SCCF:16:1,2010-02-06T22:00:00Z,26.4345,-81.9647,2.584,7.37,1111122 
SCCF RECON,ioos:station:SCCF:16:1,2010-02-06T23:00:00Z,26.4345,-81.9647,2.572,7.33,1111122 
SCCF RECON,ioos:station:SCCF:16:1,2010-02-07T00:00:00Z,26.4345,-81.9647,2.533,7.19,1111122 
SCCF RECON,ioos:station:SCCF:16:1,2010-02-07T01:00:00Z,26.4345,-81.9647,2.438,7.2,1111122 
SCCF RECON,ioos:station:SCCF:16:1,2010-02-07T02:00:00Z,26.4345,-81.9647,2.343,7.2,1111122 
SCCF RECON,ioos:station:SCCF:16:1,2010-02-07T03:00:00Z,26.4345,-81.9647,2.219,7.23,1111122 
SCCF RECON,ioos:station:SCCF:16:1,2010-02-07T04:00:00Z,26.4345,-81.9647,2.099,7.29,1111122 
SCCF RECON,ioos:station:SCCF:16:1,2010-02-07T05:00:00Z,26.4345,-81.9647,2.021,7.22,1111122 
SCCF RECON,ioos:station:SCCF:16:1,2010-02-07T06:00:00Z,26.4345,-81.9647,1.959,7.15,1111122 
SCCF RECON,ioos:station:SCCF:16:1,2010-02-07T07:00:00Z,26.4345,-81.9647,1.846,7.19,1111122 
SCCF RECON,ioos:station:SCCF:16:1,2010-02-07T08:00:00Z,26.4345,-81.9647,1.889,7.16,1111122 
SCCF RECON,ioos:station:SCCF:16:1,2010-02-07T09:00:00Z,26.4345,-81.9647,1.971,7.12,1111122 
SCCF RECON,ioos:station:SCCF:16:1,2010-02-07T10:00:00Z,26.4345,-81.9647,2.082,7.11,1111122 
SCCF RECON,ioos:station:SCCF:16:1,2010-02-07T11:00:00Z,26.4345,-81.9647,2.143,7.1,1111122 
SCCF RECON,ioos:station:SCCF:16:1,2010-02-07T12:00:00Z,26.4345,-81.9647,2.19,7.1,1111122 
SCCF RECON,ioos:station:SCCF:16:1,2010-02-07T13:00:00Z,26.4345,-81.9647,2.226,7.12,1111122 
SCCF RECON,ioos:station:SCCF:16:1,2010-02-07T14:00:00Z,26.4345,-81.9647,2.279,7.18,1111122 
SCCF RECON,ioos:station:SCCF:16:1,2010-02-07T15:00:00Z,26.4345,-81.9647,2.282,7.23,1111122 
SCCF RECON,ioos:station:SCCF:16:1,2010-02-07T16:00:00Z,26.4345,-81.9647,2.31,7.27,1111122 
SCCF RECON,ioos:station:SCCF:16:1,2010-02-07T17:00:00Z,26.4345,-81.9647,2.327,7.32,1111122 
SCCF RECON,ioos:station:SCCF:16:1,2010-02-07T18:00:00Z,26.4345,-81.9647,2.321,7.4,1111122 
SCCF RECON,ioos:station:SCCF:16:1,2010-02-07T19:00:00Z,26.4345,-81.9647,2.322,7.41,1111122 
SCCF RECON,ioos:station:SCCF:16:1,2010-02-07T20:00:00Z,26.4345,-81.9647,2.353,7.47,1111122 
SCCF RECON,ioos:station:SCCF:16:1,2010-02-07T21:00:00Z,26.4345,-81.9647,2.412,7.58,1111122 
SCCF RECON,ioos:station:SCCF:16:1,2010-02-07T22:00:00Z,26.4345,-81.9647,2.522,7.65,1111122 
SCCF RECON,ioos:station:SCCF:16:1,2010-02-07T23:00:00Z,26.4345,-81.9647,2.568,7.7,1111122 
SCCF RECON,ioos:station:SCCF:16:1,2010-02-08T00:00:00Z,26.4345,-81.9647,2.59,7.43,1111122 
SCCF RECON,ioos:station:SCCF:16:1,2010-02-08T01:00:00Z,26.4345,-81.9647,2.511,7.3,1111122 
SCCF RECON,ioos:station:SCCF:16:1,2010-02-08T02:00:00Z,26.4345,-81.9647,2.413,7.37,1111122 
SCCF RECON,ioos:station:SCCF:16:1,2010-02-08T03:00:00Z,26.4345,-81.9647,2.347,7.49,1111122 
SCCF RECON,ioos:station:SCCF:16:1,2010-02-08T04:00:00Z,26.4345,-81.9647,2.255,7.11,1111122 
SCCF RECON,ioos:station:SCCF:16:1,2010-02-08T05:00:00Z,26.4345,-81.9647,2.119,7.12,1111122 
SCCF RECON,ioos:station:SCCF:16:1,2010-02-08T06:00:00Z,26.4345,-81.9647,2.002,7.05,1111122 
SCCF RECON,ioos:station:SCCF:16:1,2010-02-08T07:00:00Z,26.4345,-81.9647,1.86,7.17,1111122 
SCCF RECON,ioos:station:SCCF:16:1,2010-02-08T08:00:00Z,26.4345,-81.9647,1.863,7.11,1111122 
SCCF RECON,ioos:station:SCCF:16:1,2010-02-08T09:00:00Z,26.4345,-81.9647,1.95,7.22,1111122 
SCCF RECON,ioos:station:SCCF:16:1,2010-02-08T10:00:00Z,26.4345,-81.9647,2.124,7.19,1111122 
SCCF RECON,ioos:station:SCCF:16:1,2010-02-08T11:00:00Z,26.4345,-81.9647,2.196,7.16,1111122 
SCCF RECON,ioos:station:SCCF:16:1,2010-02-08T12:00:00Z,26.4345,-81.9647,2.258,7.0,1111122 
SCCF RECON,ioos:station:SCCF:16:1,2010-02-08T13:00:00Z,26.4345,-81.9647,2.3,7.19,1111122 
SCCF RECON,ioos:station:SCCF:16:1,2010-02-08T14:00:00Z,26.4345,-81.9647,2.361,7.24,1111122 
SCCF RECON,ioos:station:SCCF:16:1,2010-02-08T15:00:00Z,26.4345,-81.9647,2.457,7.32,1111122 
SCCF RECON,ioos:station:SCCF:16:1,2010-02-08T16:00:00Z,26.4345,-81.9647,2.469,7.42,1111122 
SCCF RECON,ioos:station:SCCF:16:1,2010-02-08T17:00:00Z,26.4345,-81.9647,2.467,7.49,1111122 
SCCF RECON,ioos:station:SCCF:16:1,2010-02-08T18:00:00Z,26.4345,-81.9647,2.447,7.53,1111122 
SCCF RECON,ioos:station:SCCF:16:1,2010-02-08T19:00:00Z,26.4345,-81.9647,2.449,7.65,1111122 
SCCF RECON,ioos:station:SCCF:16:1,2010-02-08T20:00:00Z,26.4345,-81.9647,2.459,7.54,1111122 
SCCF RECON,ioos:station:SCCF:16:1,2010-02-08T21:00:00Z,26.4345,-81.9647,2.506,7.68,1111122 
SCCF RECON,ioos:station:SCCF:16:1,2010-02-08T22:00:00Z,26.4345,-81.9647,2.582,7.74,1111122 
SCCF RECON,ioos:station:SCCF:16:1,2010-02-08T23:00:00Z,26.4345,-81.9647,2.657,7.73,1111122 
SCCF RECON,ioos:station:SCCF:16:1,2010-02-09T00:00:00Z,26.4345,-81.9647,2.681,7.71,1111122 
SCCF RECON,ioos:station:SCCF:16:1,2010-02-09T01:00:00Z,26.4345,-81.9647,2.672,7.65,1111122 
SCCF RECON,ioos:station:SCCF:16:1,2010-02-09T02:00:00Z,26.4345,-81.9647,2.645,7.66,1111122 
SCCF RECON,ioos:station:SCCF:16:1,2010-02-09T03:00:00Z,26.4345,-81.9647,2.593,7.56,1111122 
SCCF RECON,ioos:station:SCCF:16:1,2010-02-09T04:00:00Z,26.4345,-81.9647,2.49,7.17,1111122 
SCCF RECON,ioos:station:SCCF:16:1,2010-02-09T05:00:00Z,26.4345,-81.9647,2.338,6.73,1111122 
SCCF RECON,ioos:station:SCCF:16:1,2010-02-09T06:00:00Z,26.4345,-81.9647,2.169,7.08,1111122 
SCCF RECON,ioos:station:SCCF:16:1,2010-02-09T07:00:00Z,26.4345,-81.9647,1.998,7.39,1111122 
SCCF RECON,ioos:station:SCCF:16:1,2010-02-09T08:00:00Z,26.4345,-81.9647,1.9,7.0,1111122 
SCCF RECON,ioos:station:SCCF:16:1,2010-02-09T09:00:00Z,26.4345,-81.9647,1.88,7.19,1111122 
SCCF RECON,ioos:station:SCCF:16:1,2010-02-09T10:00:00Z,26.4345,-81.9647,1.986,7.15,1111122 
SCCF RECON,ioos:station:SCCF:16:1,2010-02-09T11:00:00Z,26.4345,-81.9647,2.126,7.11,1111122 
SCCF RECON,ioos:station:SCCF:16:1,2010-02-09T12:00:00Z,26.4345,-81.9647,2.287,7.14,1111122 
SCCF RECON,ioos:station:SCCF:16:1,2010-02-09T13:00:00Z,26.4345,-81.9647,2.397,7.22,1111122 
SCCF RECON,ioos:station:SCCF:16:1,2010-02-09T14:00:00Z,26.4345,-81.9647,2.482,7.2,1111122 
SCCF RECON,ioos:station:SCCF:16:1,2010-02-09T15:00:00Z,26.4345,-81.9647,2.56,7.24,1111122 
SCCF RECON,ioos:station:SCCF:16:1,2010-02-09T16:00:00Z,26.4345,-81.9647,2.609,7.41,1111122 
SCCF RECON,ioos:station:SCCF:16:1,2010-02-09T17:00:00Z,26.4345,-81.9647,2.58,7.18,1111122 
SCCF RECON,ioos:station:SCCF:16:1,2010-02-09T18:00:00Z,26.4345,-81.9647,2.593,7.24,1111122 
SCCF RECON,ioos:station:SCCF:16:1,2010-02-09T19:00:00Z,26.4345,-81.9647,2.51,7.43,1111122 
SCCF RECON,ioos:station:SCCF:16:1,2010-02-09T20:00:00Z,26.4345,-81.9647,2.545,7.35,1111122 
SCCF RECON,ioos:station:SCCF:16:1,2010-02-09T21:00:00Z,26.4345,-81.9647,2.584,7.35,1111122 
SCCF RECON,ioos:station:SCCF:16:1,2010-02-09T22:00:00Z,26.4345,-81.9647,2.65,7.36,1111122 
SCCF RECON,ioos:station:SCCF:16:1,2010-02-09T23:00:00Z,26.4345,-81.9647,2.719,7.34,1111122 
SCCF RECON,ioos:station:SCCF:16:1,2010-02-10T00:00:00Z,26.4345,-81.9647,2.718,7.34,1111122 
SCCF RECON,ioos:station:SCCF:16:1,2010-02-10T01:00:00Z,26.4345,-81.9647,2.821,7.32,1111122 
SCCF RECON,ioos:station:SCCF:16:1,2010-02-10T02:00:00Z,26.4345,-81.9647,2.812,7.28,1111122 
SCCF RECON,ioos:station:SCCF:16:1,2010-02-10T03:00:00Z,26.4345,-81.9647,2.756,7.25,1111122 
SCCF RECON,ioos:station:SCCF:16:1,2010-02-10T04:00:00Z,26.4345,-81.9647,2.634,7.22,1111122 
SCCF RECON,ioos:station:SCCF:16:1,2010-02-10T05:00:00Z,26.4345,-81.9647,2.46,7.16,1111122 
SCCF RECON,ioos:station:SCCF:16:1,2010-02-10T06:00:00Z,26.4345,-81.9647,2.263,7.11,1111122 
SCCF RECON,ioos:station:SCCF:16:1,2010-02-10T07:00:00Z,26.4345,-81.9647,2.031,6.99,1111122 
SCCF RECON,ioos:station:SCCF:16:1,2010-02-10T08:00:00Z,26.4345,-81.9647,1.892,7.11,1111122 
SCCF RECON,ioos:station:SCCF:16:1,2010-02-10T09:00:00Z,26.4345,-81.9647,1.89,7.03,1111122 
SCCF RECON,ioos:station:SCCF:16:1,2010-02-10T10:00:00Z,26.4345,-81.9647,1.852,7.04,1111122 
SCCF RECON,ioos:station:SCCF:16:1,2010-02-10T11:00:00Z,26.4345,-81.9647,1.891,7.05,1111122 
SCCF RECON,ioos:station:SCCF:16:1,2010-02-10T12:00:00Z,26.4345,-81.9647,1.964,7.08,1111122 
SCCF RECON,ioos:station:SCCF:16:1,2010-02-10T13:00:00Z,26.4345,-81.9647,2.054,7.07,1111122 
SCCF RECON,ioos:station:SCCF:16:1,2010-02-10T14:00:00Z,26.4345,-81.9647,2.19,7.1,1111122 
SCCF RECON,ioos:station:SCCF:16:1,2010-02-10T15:00:00Z,26.4345,-81.9647,2.285,7.14,1111122 
SCCF RECON,ioos:station:SCCF:16:1,2010-02-10T16:00:00Z,26.4345,-81.9647,2.353,7.3,1111122 
SCCF RECON,ioos:station:SCCF:16:1,2010-02-10T17:00:00Z,26.4345,-81.9647,2.341,7.4,1111122 
SCCF RECON,ioos:station:SCCF:16:1,2010-02-10T18:00:00Z,26.4345,-81.9647,2.238,7.4,1111122 
SCCF RECON,ioos:station:SCCF:16:1,2010-02-10T19:00:00Z,26.4345,-81.9647,2.167,7.5,1111122 
SCCF RECON,ioos:station:SCCF:16:1,2010-02-10T20:00:00Z,26.4345,-81.9647,2.176,7.47,1111122 
SCCF RECON,ioos:station:SCCF:16:1,2010-02-10T21:00:00Z,26.4345,-81.9647,2.177,7.42,1111122 
SCCF RECON,ioos:station:SCCF:16:1,2010-02-10T22:00:00Z,26.4345,-81.9647,2.264,7.48,1111122 
SCCF RECON,ioos:station:SCCF:16:1,2010-02-10T23:00:00Z,26.4345,-81.9647,2.382,7.51,1111122 
SCCF RECON,ioos:station:SCCF:16:1,2010-02-11T00:00:00Z,26.4345,-81.9647,2.437,7.8,1111122 
SCCF RECON,ioos:station:SCCF:16:1,2010-02-11T01:00:00Z,26.4345,-81.9647,2.549,7.91,1111122 
SCCF RECON,ioos:station:SCCF:16:1,2010-02-11T02:00:00Z,26.4345,-81.9647,2.588,7.86,1111122 
SCCF RECON,ioos:station:SCCF:16:1,2010-02-11T03:00:00Z,26.4345,-81.9647,2.597,7.69,1111122 
SCCF RECON,ioos:station:SCCF:16:1,2010-02-11T04:00:00Z,26.4345,-81.9647,2.494,7.55,1111122 
SCCF RECON,ioos:station:SCCF:16:1,2010-02-11T05:00:00Z,26.4345,-81.9647,2.361,7.42,1111122 
SCCF RECON,ioos:station:SCCF:16:1,2010-02-11T06:00:00Z,26.4345,-81.9647,2.221,7.39,1111122 
SCCF RECON,ioos:station:SCCF:16:1,2010-02-11T07:00:00Z,26.4345,-81.9647,2.07,7.39,1111122 
SCCF RECON,ioos:station:SCCF:16:1,2010-02-11T08:00:00Z,26.4345,-81.9647,1.985,7.53,1111122 
SCCF RECON,ioos:station:SCCF:16:1,2010-02-11T09:00:00Z,26.4345,-81.9647,1.775,7.33,1111122 
SCCF RECON,ioos:station:SCCF:16:1,2010-02-11T10:00:00Z,26.4345,-81.9647,1.722,7.52,1111122 
SCCF RECON,ioos:station:SCCF:16:1,2010-02-11T11:00:00Z,26.4345,-81.9647,1.732,7.38,1111122 
SCCF RECON,ioos:station:SCCF:16:1,2010-02-11T12:00:00Z,26.4345,-81.9647,1.9,7.26,1111122 
SCCF RECON,ioos:station:SCCF:16:1,2010-02-11T13:00:00Z,26.4345,-81.9647,2.07,7.34,1111122 
SCCF RECON,ioos:station:SCCF:16:1,2010-02-11T14:00:00Z,26.4345,-81.9647,2.218,7.48,1111122 
SCCF RECON,ioos:station:SCCF:16:1,2010-02-11T15:00:00Z,26.4345,-81.9647,2.349,7.57,1111122 
SCCF RECON,ioos:station:SCCF:16:1,2010-02-11T16:00:00Z,26.4345,-81.9647,2.409,7.64,1111122 
SCCF RECON,ioos:station:SCCF:16:1,2010-02-11T17:00:00Z,26.4345,-81.9647,2.402,7.72,1111122 
SCCF RECON,ioos:station:SCCF:16:1,2010-02-11T18:00:00Z,26.4345,-81.9647,2.392,7.56,1111122 
SCCF RECON,ioos:station:SCCF:16:1,2010-02-11T19:00:00Z,26.4345,-81.9647,2.297,7.53,1111122 